Chelan, Washington, United States (98816)
Lat: 47.84N, Lon: 120.02W
Wx Zone: WAZ041
Local Info
Past Weather Observations for Today

NOTE: This archive is for the closest National Weather Service station to Chelan. Information may differ from the station used for current weather conditions.

Click here for Long-term Archive

Time Weather Temperature Dewpoint Humidity Pressure Winds Precip Visibility
14:55
Partly Cloudy
55°F / 13°C 50°F / 10°C 82% 29.74 in
(1007 mb)
E 4.6 mph
(E 7 kph)
- 10SM
13:55
Mostly Cloudy
54°F / 12°C 48°F / 9°C 82% 29.74 in
(1007 mb)
Calm 0.00 in
(0.00 mm)
7SM
13:49
Mostly Cloudy
Hazy
54°F / 12°C 48°F / 9°C 82% 29.74 in
(1007 mb)
Calm 0.00 in
(0.00 mm)
6SM
13:34
Mostly Cloudy
Fog And Mist
54°F / 12°C 50°F / 10°C 88% 29.71 in
(1006 mb)
NNW 3.5 mph
(NNW 6 kph)
0.00 in
(0.00 mm)
5SM
13:20
Mostly Cloudy
Fog And Mist
54°F / 12°C 50°F / 10°C 88% 29.71 in
(1006 mb)
WNW 5.8 mph
(WNW 9 kph)
0.00 in
(0.00 mm)
5SM
12:55
Overcast
Light Rain
54°F / 12°C 48°F / 9°C 82% 29.71 in
(1006 mb)
E 6.9 mph
(E 11 kph)
0.01 in
(0.25 mm)
10SM
12:05
Overcast
54°F / 12°C 48°F / 9°C 82% 29.71 in
(1006 mb)
NE 6.9 mph
(NE 11 kph)
- 8SM
11:55
Overcast
54°F / 12°C 48°F / 9°C 82% 29.71 in
(1006 mb)
NE 6.9 mph
(NE 11 kph)
0.00 in
(0.00 mm)
8SM
11:44
Overcast
Light Rain
52°F / 11°C 48°F / 9°C 88% 29.74 in
(1007 mb)
NW 4.6 mph
(NW 7 kph)
0.00 in
(0.00 mm)
6SM
11:03
Overcast
54°F / 12°C 48°F / 9°C 82% 29.71 in
(1006 mb)
SE 10.4 mph
(SE 17 kph)
- 10SM
10:55
Overcast
54°F / 12°C 48°F / 9°C 82% 29.71 in
(1006 mb)
SE 9.2 mph
(SE 15 kph)
- 10SM
10:50
Overcast
54°F / 12°C 48°F / 9°C 82% 29.71 in
(1006 mb)
SE 9.2 mph
(SE 15 kph)
- 10SM
10:29
Overcast
54°F / 12°C 48°F / 9°C 82% 29.71 in
(1006 mb)
SE 11.5 mph
(SE 19 kph)
- 10SM
09:55
Overcast
54°F / 12°C 48°F / 9°C 82% 29.71 in
(1006 mb)
SE 6.9 mph
(SE 11 kph)
- 10SM
08:55
Overcast
52°F / 11°C 48°F / 9°C 88% 29.71 in
(1006 mb)
SE 8.1 mph
(SE 13 kph)
- 10SM
07:55
Overcast
52°F / 11°C 48°F / 9°C 88% 29.71 in
(1006 mb)
SE 6.9 mph
(SE 11 kph)
- 9SM
07:37
Overcast
Fog And Mist
52°F / 11°C 48°F / 9°C 88% 29.71 in
(1006 mb)
Calm - 2SM
07:29
Overcast
Fog
52°F / 11°C 48°F / 9°C 88% 29.71 in
(1006 mb)
Calm - 1/2SM
07:22
Overcast
Fog And Mist
52°F / 11°C 48°F / 9°C 88% 29.71 in
(1006 mb)
Calm - 1 1/4SM
06:55
Overcast
52°F / 11°C 46°F / 8°C 82% 29.71 in
(1006 mb)
ENE 5.8 mph
(ENE 9 kph)
0.01 in
(0.25 mm)
10SM
06:47
Overcast
52°F / 11°C 46°F / 8°C 82% 29.71 in
(1006 mb)
E 3.5 mph
(E 6 kph)
0.01 in
(0.25 mm)
10SM
06:38
Overcast
Light Rain
52°F / 11°C 46°F / 8°C 82% 29.71 in
(1006 mb)
E 5.8 mph
(E 9 kph)
0.01 in
(0.25 mm)
10SM
05:55
Overcast
Light Rain
50°F / 10°C 46°F / 8°C 88% 29.71 in
(1006 mb)
ENE 4.6 mph
(ENE 7 kph)
0.03 in
(0.76 mm)
4SM
05:05
Overcast
Light Rain
50°F / 10°C 46°F / 8°C 88% 29.74 in
(1007 mb)
Calm 0.01 in
(0.25 mm)
4SM
04:55
Overcast
Light Rain
50°F / 10°C 48°F / 9°C 94% 29.74 in
(1007 mb)
Calm 0.03 in
(0.76 mm)
3SM
04:35
Overcast
Light Rain
50°F / 10°C 46°F / 8°C 88% 29.74 in
(1007 mb)
Calm 0.03 in
(0.76 mm)
6SM
04:25
Overcast
Light Rain
50°F / 10°C 46°F / 8°C 88% 29.71 in
(1006 mb)
Calm 0.02 in
(0.51 mm)
2 1/2SM
03:55
Overcast
Light Rain
50°F / 10°C 46°F / 8°C 88% 29.74 in
(1007 mb)
Calm 0.02 in
(0.51 mm)
8SM
03:49
Overcast
Light Rain
50°F / 10°C 46°F / 8°C 88% 29.74 in
(1007 mb)
Calm 0.01 in
(0.25 mm)
7SM
02:55
Overcast
Light Rain
50°F / 10°C 46°F / 8°C 88% 29.74 in
(1007 mb)
Calm 0.03 in
(0.76 mm)
8SM
02:37
Overcast
Light Rain
50°F / 10°C 46°F / 8°C 88% 29.74 in
(1007 mb)
Calm 0.02 in
(0.51 mm)
3SM
02:30
Overcast
Light Rain
50°F / 10°C 46°F / 8°C 88% 29.74 in
(1007 mb)
Calm 0.02 in
(0.51 mm)
1SM
02:16
Overcast
Light Rain
50°F / 10°C 46°F / 8°C 88% 29.74 in
(1007 mb)
NW 3.5 mph
(NW 6 kph)
0.01 in
(0.25 mm)
1/2SM
02:09
Overcast
Light Rain
50°F / 10°C 46°F / 8°C 88% 29.77 in
(1008 mb)
Calm 0.01 in
(0.25 mm)
1/2SM
01:59
Overcast
Light Rain
50°F / 10°C 46°F / 8°C 88% 29.74 in
(1007 mb)
SSW 4.6 mph
(SSW 7 kph)
0.01 in
(0.25 mm)
3/4SM
01:55
Overcast
Light Rain
50°F / 10°C 46°F / 8°C 88% 29.74 in
(1007 mb)
SW 3.5 mph
(SW 6 kph)
0.02 in
(0.51 mm)
2 1/2SM
01:47
Overcast
Light Rain
50°F / 10°C 46°F / 8°C 88% 29.77 in
(1008 mb)
SSW 5.8 mph
(SSW 9 kph)
0.02 in
(0.51 mm)
5SM
01:37
Overcast
Light Rain
50°F / 10°C 46°F / 8°C 88% 29.77 in
(1008 mb)
SW 4.6 mph
(SW 7 kph)
0.02 in
(0.51 mm)
3SM
01:29
Overcast
Light Rain
50°F / 10°C 46°F / 8°C 88% 29.77 in
(1008 mb)
N 3.5 mph
(N 6 kph)
0.02 in
(0.51 mm)
2 1/2SM
01:22
Overcast
Light Rain
50°F / 10°C 46°F / 8°C 88% 29.77 in
(1008 mb)
N 5.8 mph
(N 9 kph)
0.01 in
(0.25 mm)
1 3/4SM
01:03
Overcast
Light Rain
50°F / 10°C 46°F / 8°C 88% 29.77 in
(1008 mb)
Calm 0.01 in
(0.25 mm)
1/2SM
00:55
Overcast
Light Rain
50°F / 10°C 46°F / 8°C 88% 29.77 in
(1008 mb)
S 3.5 mph
(S 6 kph)
0.07 in
(1.78 mm)
1SM
00:50
Overcast
Light Rain
50°F / 10°C 46°F / 8°C 88% 29.77 in
(1008 mb)
S 4.6 mph
(S 7 kph)
0.05 in
(1.27 mm)
1 3/4SM
00:22
Overcast
Light Rain
50°F / 10°C 46°F / 8°C 88% 29.77 in
(1008 mb)
Calm 0.03 in
(0.76 mm)
4SM
00:14
Overcast
Light Rain
50°F / 10°C 46°F / 8°C 88% 29.8 in
(1009 mb)
Calm 0.03 in
(0.76 mm)
2SM
00:05
Overcast
Rain
50°F / 10°C 48°F / 9°C 94% 29.8 in
(1009 mb)
Calm 0.02 in
(0.51 mm)
1/2SM
Time Weather Temperature Dewpoint Humidity Pressure Winds Precip Visibility


Weather for websites

WeatherForYou.com, LLC is not responsible for any damages or problems caused by this service. Current weather conditions are obtained from the closest station including government and personal stations which may have varying degrees of accuracy. Weather forecasts are derived from the NOAA NDFD. Like all things, this site belongs to Jesus Christ... He just trusts me to maintain it. If you have any questions or comments email webmaster@weatherforyou.com

Copyright © 2014, WeatherForYou.com LLC. All rights reserved.